Dewpoint
67 62 58 53 45 43 40 40 43 48 50 52 54 54 52 54 50 51 66 68 66 65 68 69 71 70 71 73 73 73 72 72 71 71 71 71 71 72 70 69 71 71 71 70 70 70 71 71 71
62 57 50 51 41 37 40 42 42 46 50 54 53 52 52 54 62 64 66 68 66 66 68 68 71 71 72 73 73 73 72 72 71 70 69 69 69 69 71 70 69 71 71 70 70 70 70 70 70
57 48 45 46 42 38 39 43 49 50 52 51 50 53 54 56 64 64 67 68 67 67 69 69 71 71 73 73 73 72 72 71 71 70 69 69 69 69 69 70 69 69 70 70 70 70 69 70 69
37 44 46 40 38 40 42 44 50 50 51 51 51 51 57 64 64 66 68 68 66 66 66 70 71 71 73 73 73 72 71 71 70 69 68 69 69 70 70 69 69 69 69 70 70 69 69 70 69
37 41 39 40 40 42 44 46 50 51 51 50 50 51 57 64 67 68 68 67 64 64 66 67 71 71 73 73 72 72 71 71 70 68 69 70 69 69 69 69 68 68 68 69 69 69 69 69 68
34 36 36 39 35 39 44 47 51 50 50 51 51 52 57 66 67 68 67 65 62 63 65 66 71 71 72 72 72 72 71 71 70 69 69 70 69 69 69 69 68 68 68 68 68 67 67 68 68
30 30 30 32 37 38 43 48 50 50 50 50 52 49 57 64 66 67 67 64 62 63 65 65 67 70 72 72 72 72 71 71 71 70 70 69 68 68 68 68 69 69 68 68 68 68 68 68 68
32 30 27 31 32 39 43 48 51 50 51 53 52 51 52 62 66 66 66 63 62 63 63 65 66 65 66 68 72 72 71 71 71 70 69 69 68 67 66 67 68 68 68 69 68 68 66 66 66
25 25 25 25 37 40 43 44 52 54 53 51 53 55 56 64 65 64 63 62 62 63 63 64 65 66 64 64 68 71 71 71 71 69 69 68 63 63 63 65 66 65 65 66 66 66 66 66 66
25 28 24 24 34 23 28 34 46 51 52 53 54 59 62 64 63 61 60 58 58 60 62 63 66 65 65 65 67 67 66 65 65 65 66 64 65 64 62 65 67 67 67 65 65 66 66 66 61
24 27 21 20 22 24 18 19 35 44 46 50 53 58 61 62 61 59 58 56 56 58 61 62 66 68 65 64 66 66 66 66 66 67 66 67 65 65 64 64 63 64 64 61 62 61 59 60 61
21 21 20 18 17 16 14 17 29 41 39 52 55 58 60 61 59 58 57 56 55 58 60 61 64 66 67 64 65 65 65 66 64 64 67 66 65 65 66 64 66 67 64 64 63 62 64 63 62
20 18 18 17 15 14 16 18 22 42 52 55 56 58 59 59 59 57 54 56 56 55 59 62 65 67 66 67 64 65 64 64 64 65 65 65 64 66 66 66 66 66 66 65 64 64 65 65 64
17 16 14 13 13 16 26 39 38 48 54 54 56 57 58 59 59 58 57 55 58 57 58 60 62 65 66 66 65 64 65 64 65 64 65 67 65 66 65 66 66 66 66 66 64 64 65 64 62
12 12 13 14 17 26 41 39 40 51 53 53 54 56 57 59 58 58 59 60 60 59 59 61 63 64 66 66 66 63 63 62 63 63 67 67 67 68 67 65 66 66 67 69 68 67 66 64 61
12 15 9 15 17 41 40 25 39 53 52 52 53 54 55 57 57 58 59 61 61 62 62 62 57 60 64 65 64 62 62 62 62 62 63 65 66 67 67 66 66 67 68 67 67 66 63 63 61
16 7 11 13 21 40 37 33 35 53 51 50 52 53 53 55 57 59 59 60 61 63 63 63 61 58 62 64 63 64 65 63 62 62 62 64 64 64 67 66 66 69 67 67 66 65 64 62 62
9 8 13 15 16 17 22 19 21 48 53 50 51 52 53 54 55 57 58 58 60 62 64 64 63 63 63 62 63 61 61 61 61 61 61 64 64 65 67 66 68 68 67 66 66 67 64 63 61
11 14 15 17 17 16 17 19 18 25 52 53 52 52 52 54 55 58 58 58 58 59 62 64 64 68 64 60 58 58 57 59 61 61 63 64 64 64 67 65 67 68 68 68 68 68 66 65 64
16 14 14 17 16 17 17 18 40 43 44 49 53 54 54 54 56 57 58 59 59 59 61 63 64 66 65 62 63 59 60 59 61 62 64 64 64 65 66 67 67 69 67 70 69 66 65 65 66
16 13 15 13 15 16 19 18 39 43 48 52 54 55 53 54 55 56 57 58 59 59 61 62 65 66 66 66 63 64 63 63 62 62 62 63 64 63 66 68 68 70 70 70 69 66 65 64 64
12 14 13 14 14 11 19 12 31 46 48 55 56 57 58 58 52 51 54 56 58 59 60 63 65 66 66 67 65 66 61 61 62 62 62 63 66 65 66 68 69 71 70 71 69 68 66 65 63
10 16 15 15 16 18 16 10 41 50 50 54 55 55 57 60 57 53 55 55 55 55 57 61 65 65 65 65 65 62 65 61 62 63 65 67 68 68 67 68 69 70 70 70 68 68 67 67 66
19 19 20 19 17 14 17 14 44 52 54 55 52 51 53 53 56 59 61 63 63 63 58 55 60 63 63 63 64 66 65 64 62 64 63 64 67 68 69 68 70 70 70 69 68 68 66 68 66
21 23 16 15 13 13 29 35 49 54 55 53 52 52 52 54 59 63 63 63 65 65 66 64 58 60 62 63 63 63 64 66 66 67 66 67 67 68 69 70 70 70 68 68 68 66 66 67 67
22 23 15 15 13 13 36 39 51 55 54 55 55 52 53 58 62 62 62 63 64 65 66 66 66 62 60 62 63 64 66 64 64 67 67 67 68 68 69 69 69 69 68 67 68 67 66 68 66
19 16 22 25 24 19 40 47 48 53 52 54 51 53 58 61 61 61 62 62 64 64 65 65 65 63 64 64 66 66 67 66 65 66 66 64 66 66 66 67 68 68 67 66 66 66 66 65 64
21 22 19 21 22 18 36 40 41 47 51 52 53 56 60 60 61 61 61 62 63 64 65 65 65 65 66 65 66 66 66 65 65 64 65 65 66 67 66 67 67 66 66 66 64 62 63 61 60
19 18 26 28 26 17 29 35 47 51 53 54 57 59 59 60 60 60 61 61 63 65 65 65 64 64 64 65 65 66 65 65 65 64 65 65 66 66 65 63 63 63 63 62 60 59 59 59 57
21 24 31 18 28 32 31 39 54 53 55 57 58 60 60 61 61 61 61 62 62 63 63 64 65 64 64 64 63 64 65 64 65 65 65 64 63 62 59 59 58 57 57 58 55 55 55 54 53
Lifted_Index
1 2 1 0 1 2 3 3 3 2 1 1 1 0 0 0 0 -0 -1 -0 1 1 1 1 1 1 1 -0 -1 -1 -0 -0 -0 0 0 0 -0 -1 -1 -1 -2 -3 -2 -2 -2 -2 -2 -2 -2
2 2 1 0 0 1 2 3 3 2 2 1 1 1 1 0 -0 -0 -0 -0 1 1 1 1 1 1 0 -0 -1 -1 -0 -0 0 0 1 1 0 -0 -1 -1 -1 -2 -2 -2 -2 -2 -2 -2 -2
3 3 1 -0 -0 1 2 2 3 2 2 2 2 2 2 1 0 -0 -0 0 1 2 2 1 1 1 -0 -1 -1 -1 -0 0 0 1 1 1 1 0 0 -0 -1 -1 -2 -1 -1 -1 -1 -2 -2
4 3 1 -0 -0 0 1 2 2 2 2 3 3 3 2 1 1 0 0 1 2 2 2 1 1 1 -0 -1 -1 -0 -0 0 1 1 1 1 0 0 0 0 0 -0 -1 -1 -1 -1 -1 -1 -1
4 2 1 -0 -0 0 1 2 2 2 3 3 3 3 2 1 1 1 1 1 2 3 2 2 1 0 -0 -1 -1 -1 -0 0 1 1 1 1 0 0 0 0 0 0 -0 -0 -0 -0 -0 -1 -1
3 2 1 0 0 1 2 2 2 2 3 3 3 3 2 2 1 1 1 2 3 3 3 2 1 0 -0 -1 -1 -1 -1 -0 0 1 0 0 0 0 0 0 0 0 0 0 -0 0 -0 -0 -0
3 2 2 1 1 1 2 2 2 3 3 3 3 3 2 2 1 1 2 3 4 4 3 2 1 1 0 -1 -1 -1 -1 -1 -0 -0 0 0 1 1 1 1 1 0 0 0 0 0 0 0 0
3 2 2 2 1 1 2 2 2 3 3 3 3 2 2 1 1 2 2 3 4 4 3 2 2 1 1 -0 -1 -2 -2 -1 -1 -0 0 1 1 2 2 2 2 1 1 1 1 1 1 1 1
3 3 2 2 2 2 2 3 2 2 2 2 2 2 1 1 1 2 3 4 4 4 3 2 2 1 1 0 -1 -1 -1 -1 -1 -0 0 1 2 2 2 2 2 2 2 2 2 2 2 2 2
3 3 3 3 3 3 3 4 3 2 2 2 2 1 1 1 2 2 3 4 5 4 4 3 2 1 1 0 -0 -1 -1 -0 0 0 1 1 1 2 2 2 1 2 2 2 2 2 2 2 2
4 3 4 4 4 4 4 5 4 3 2 1 1 1 1 1 2 2 3 4 5 5 4 3 2 1 1 1 0 -0 -0 0 0 1 1 1 1 1 1 1 1 1 2 2 2 2 2 2 2
4 4 4 5 5 5 5 4 3 3 2 1 1 1 1 1 2 3 3 4 5 5 4 3 2 1 1 1 0 0 0 0 1 1 0 0 0 0 0 0 0 0 1 1 2 1 1 1 1
5 4 4 4 4 4 4 3 2 2 1 1 1 1 1 1 2 2 3 4 4 4 4 3 2 1 1 1 1 1 1 1 1 0 0 -0 -0 -0 -0 -0 -1 -1 -0 0 0 0 -0 0 0
6 5 4 4 4 4 4 3 2 1 1 1 1 1 1 1 1 2 2 3 3 3 3 3 2 2 1 1 1 1 1 1 0 0 -0 -0 -1 -1 -1 -1 -1 -2 -1 -1 -1 -1 -1 -1 -0
6 5 4 4 4 4 3 2 1 1 1 1 1 1 1 1 1 1 1 1 2 2 2 2 2 2 1 1 1 1 1 0 0 0 -0 -1 -1 -1 -1 -2 -2 -2 -2 -2 -2 -2 -2 -1 -1
6 5 4 4 4 3 3 2 1 0 0 0 1 1 1 0 0 0 0 0 0 0 1 1 2 2 2 1 1 1 1 1 1 0 0 -0 -1 -1 -2 -2 -3 -3 -3 -3 -3 -2 -2 -1 -1
4 4 3 4 4 3 3 3 2 1 -0 -0 0 0 0 -0 -0 -1 -1 -0 -1 -1 -1 -0 1 1 1 1 1 1 1 1 1 0 0 -0 -1 -1 -2 -2 -3 -3 -3 -3 -3 -2 -1 -1 -1
4 4 3 3 4 4 3 3 3 2 -0 -1 -1 -0 -0 -1 -1 -1 -1 -1 -1 -1 -1 -1 -0 -0 0 1 1 1 1 1 0 0 0 -0 -0 -1 -2 -2 -3 -3 -3 -3 -3 -2 -1 -0 -0
4 4 3 4 4 4 4 4 4 2 0 -1 -1 -1 -1 -2 -2 -2 -2 -1 -1 -1 -1 -1 -1 -1 -1 -0 0 0 0 0 0 0 0 -0 -0 -1 -1 -2 -2 -2 -3 -3 -3 -2 -1 0 0
5 4 3 4 4 4 4 4 4 3 1 -0 -1 -1 -2 -2 -2 -2 -2 -2 -2 -1 -1 -1 -1 -1 -1 -1 -0 -0 -0 -0 -0 -0 -0 -0 -0 -1 -1 -2 -2 -2 -2 -3 -2 -1 -0 0 0
4 4 4 4 4 4 4 4 4 3 1 0 -1 -1 -1 -2 -2 -2 -2 -2 -2 -2 -1 -1 -1 -1 -1 -1 -1 -0 -0 -1 -1 -1 -1 -1 -1 -1 -2 -2 -3 -3 -3 -3 -2 -1 -0 0 1
4 5 5 4 4 3 3 3 3 2 0 -1 -1 -1 -1 -1 -1 -1 -1 -1 -1 -1 -1 -1 -1 -2 -2 -1 -1 -1 -1 -1 -1 -1 -1 -2 -2 -2 -2 -3 -4 -4 -4 -3 -2 -1 -1 -0 0
5 5 5 5 4 3 3 3 2 0 -1 -1 -1 -0 -0 -1 -1 -1 -1 -1 -1 -1 -1 -1 -1 -1 -1 -1 -1 -1 -1 -1 -1 -2 -2 -2 -2 -3 -3 -3 -4 -4 -3 -2 -2 -1 -1 -0 0
6 5 4 4 3 3 3 2 0 -1 -1 -1 -0 0 0 0 -1 -1 -2 -2 -2 -2 -2 -1 -1 -1 -1 -1 -1 -1 -1 -1 -1 -2 -2 -2 -2 -3 -3 -3 -4 -3 -3 -2 -1 -1 -1 -0 -0
5 4 3 2 2 2 2 1 -1 -2 -1 -1 -0 0 0 -0 -1 -1 -2 -2 -3 -3 -3 -2 -2 -1 -0 -1 -1 -1 -1 -1 -2 -2 -2 -2 -3 -2 -3 -3 -3 -2 -2 -1 -1 -1 -0 -0 -0
4 3 2 1 1 2 2 -0 -2 -2 -1 -1 -1 -1 -1 -1 -1 -2 -2 -2 -2 -3 -3 -3 -3 -2 -1 -1 -2 -2 -2 -2 -2 -2 -2 -2 -2 -2 -2 -2 -2 -1 -1 -0 0 0 -0 -0 -0
3 3 2 2 1 1 0 -1 -2 -2 -2 -2 -1 -1 -2 -2 -2 -2 -1 -2 -2 -3 -3 -3 -3 -3 -3 -3 -3 -3 -2 -2 -1 -1 -1 -1 -1 -1 -0 -1 -1 -1 -0 0 1 1 0 -0 -0
3 2 2 2 1 1 0 -1 -1 -2 -2 -2 -2 -2 -3 -3 -2 -2 -2 -2 -2 -3 -3 -4 -4 -4 -4 -3 -3 -3 -3 -2 -1 -0 -0 -0 -0 -0 -0 -0 -0 0 0 1 1 1 1 1 1
2 2 2 1 1 1 0 -1 -1 -2 -3 -3 -3 -4 -4 -4 -3 -3 -2 -2 -2 -3 -3 -3 -4 -4 -4 -3 -3 -3 -3 -2 -2 -1 -0 -0 -0 -0 0 0 1 1 2 2 2 3 4 4 4
2 2 1 1 1 1 0 -1 -2 -3 -3 -4 -4 -5 -5 -4 -4 -3 -3 -2 -2 -2 -2 -2 -3 -3 -3 -3 -3 -2 -2 -2 -2 -1 -1 -0 -0 0 1 1 2 2 3 4 4 5 6 6 7